GPS BIIR-4 (PRN 20)

Last updated on Jan. 21, 2020, 4:35 a.m. UTC

1 26360U 00025A   20020.89583162 -.00000065  00000-0  00000+0 0  9991
2 26360  53.4450 115.3606 0049463 148.7353 211.5637  2.00568852144346
UTC
Height (km)
Latitude
Longitude
Inclination
Orbital Period
UTC large
Height (km)
Speed (km/s)
/
Latitude / Longitude
Inclination (degrees)
Orbital Period (minutes)
Azimuth
Elevation
Range (km)
Doppler Factor
iOS Compass Heading
iOS Angle

Next 30 passes for location: Hong Kong

Rise time Rise Azimuth (degrees) Set time Set Azimuth (degrees) Duration Max altitude (degrees)

No matching passes for this satellites